| time (UTC) | temp F | wind direction | speed MPH | gust MPH | rain 1hr in | rain 24hr in | rain mn in | humidity % | barometer mb |
| 20260507221550 | 59 | 317 | 0.0 | 2.0 | 0.00 | 0.03 | 0.03 | 73 | 1018.5 |
| 20260507221046 | 60 | 0 | 0.0 | 2.0 | 0.00 | 0.03 | 0.03 | 74 | 1018.6 |
| 20260507220545 | 59 | 0 | 0.0 | 3.0 | 0.00 | 0.03 | 0.03 | 75 | 1018.6 |
| 20260507220055 | 59 | 0 | 0.0 | 3.0 | 0.00 | 0.03 | 0.03 | 74 | 1018.7 |
| 20260507215546 | 59 | 0 | 0.0 | 3.0 | 0.00 | 0.03 | 0.03 | 74 | 1018.7 |
| 20260507215045 | 59 | 0 | 0.0 | 2.0 | 0.00 | 0.03 | 0.03 | 72 | 1018.8 |
| 20260507214555 | 59 | 317 | 0.0 | 2.0 | 0.00 | 0.03 | 0.03 | 76 | 1018.8 |
| 20260507214049 | 58 | 0 | 0.0 | 3.0 | 0.00 | 0.03 | 0.03 | 77 | 1018.9 |
| 20260507213551 | 58 | 0 | 0.0 | 3.0 | 0.00 | 0.03 | 0.03 | 76 | 1019.0 |
| 20260507213050 | 58 | 0 | 0.0 | 3.0 | 0.00 | 0.03 | 0.03 | 76 | 1019.1 |
| 20260507212548 | 57 | 284 | 0.0 | 3.0 | 0.00 | 0.03 | 0.03 | 77 | 1019.1 |
| 20260507212047 | 57 | 284 | 0.0 | 5.0 | 0.00 | 0.03 | 0.03 | 77 | 1019.1 |
| 20260507211559 | 57 | 281 | 1.0 | 5.0 | 0.00 | 0.03 | 0.03 | 77 | 1019.1 |
| 20260507211046 | 57 | 290 | 1.0 | 4.0 | 0.00 | 0.03 | 0.03 | 77 | 1019.1 |
| 20260507210548 | 58 | 290 | 0.0 | 2.0 | 0.00 | 0.03 | 0.03 | 76 | 1019.1 |
| 20260507210112 | 57 | 290 | 0.0 | 2.0 | 0.00 | 0.03 | 0.03 | 77 | 1019.1 |
| 20260507205546 | 57 | 0 | 0.0 | 2.0 | 0.00 | 0.03 | 0.03 | 78 | 1019.2 |
| 20260507205046 | 57 | 360 | 0.0 | 2.0 | 0.00 | 0.03 | 0.03 | 79 | 1019.3 |
| 20260507204553 | 57 | 0 | 0.0 | 4.0 | 0.00 | 0.03 | 0.03 | 79 | 1019.4 |
| 20260507204048 | 57 | 0 | 0.0 | 4.0 | 0.00 | 0.03 | 0.03 | 75 | 1019.4 |
| 20260507203546 | 57 | 0 | 0.0 | 4.0 | 0.00 | 0.03 | 0.03 | 77 | 1019.5 |
| 20260507203052 | 56 | 0 | 1.0 | 4.0 | 0.00 | 0.03 | 0.03 | 78 | 1019.5 |
| 20260507202549 | 56 | 360 | 0.0 | 3.0 | 0.00 | 0.03 | 0.03 | 79 | 1019.7 |
| 20260507202046 | 56 | 281 | 0.0 | 2.0 | 0.00 | 0.03 | 0.03 | 79 | 1019.7 |
| 20260507201552 | 56 | 281 | 0.0 | 2.0 | 0.00 | 0.03 | 0.03 | 80 | 1019.7 |
| 20260507201047 | 56 | 0 | 0.0 | 2.0 | 0.00 | 0.03 | 0.03 | 80 | 1019.7 |
| 20260507200549 | 56 | 0 | 0.0 | 2.0 | 0.00 | 0.03 | 0.03 | 79 | 1019.7 |
| 20260507200056 | 56 | 0 | 0.0 | 3.0 | 0.00 | 0.03 | 0.03 | 80 | 1019.7 |
| 20260507195550 | 55 | 0 | 0.0 | 3.0 | 0.00 | 0.03 | 0.03 | 81 | 1019.7 |
| 20260507195049 | 56 | 205 | 0.0 | 3.0 | 0.00 | 0.03 | 0.03 | 80 | 1019.8 |
| 20260507194559 | 56 | 0 | 0.0 | 3.0 | 0.00 | 0.03 | 0.03 | 80 | 1019.7 |
| 20260507194045 | 55 | 0 | 0.0 | 2.0 | 0.00 | 0.03 | 0.03 | 81 | 1019.7 |
| 20260507193549 | 55 | 0 | 0.0 | 3.0 | 0.00 | 0.03 | 0.03 | 81 | 1019.8 |
| 20260507193052 | 55 | 0 | 0.0 | 3.0 | 0.00 | 0.03 | 0.03 | 81 | 1019.7 |
| 20260507192547 | 55 | 190 | 0.0 | 4.0 | 0.00 | 0.03 | 0.03 | 82 | 1019.7 |
| 20260507192045 | 55 | 0 | 0.0 | 4.0 | 0.00 | 0.03 | 0.03 | 82 | 1019.7 |
| 20260507191549 | 54 | 190 | 0.0 | 3.0 | 0.00 | 0.03 | 0.03 | 83 | 1019.8 |
| 20260507191046 | 54 | 0 | 0.0 | 3.0 | 0.00 | 0.03 | 0.03 | 83 | 1019.8 |
| 20260507190546 | 54 | 0 | 0.0 | 5.0 | 0.00 | 0.03 | 0.03 | 83 | 1019.8 |
| 20260507190058 | 54 | 186 | 1.0 | 5.0 | 0.00 | 0.03 | 0.03 | 83 | 1019.8 |
| 20260507185545 | 54 | 0 | 0.0 | 5.0 | 0.00 | 0.03 | 0.03 | 85 | 1019.9 |
| 20260507185045 | 54 | 0 | 0.0 | 5.0 | 0.00 | 0.03 | 0.03 | 87 | 1019.9 |
| 20260507184551 | 53 | 0 | 0.0 | 5.0 | 0.00 | 0.03 | 0.03 | 86 | 1019.9 |
| 20260507184047 | 53 | 0 | 1.0 | 5.0 | 0.00 | 0.03 | 0.03 | 87 | 1020.0 |
| 20260507183550 | 53 | 0 | 0.0 | 3.0 | 0.00 | 0.03 | 0.03 | 89 | 1020.1 |
| 20260507183117 | 52 | 0 | 0.0 | 3.0 | 0.00 | 0.03 | 0.03 | 88 | 1020.0 |
| 20260507182547 | 52 | 88 | 0.0 | 3.0 | 0.00 | 0.03 | 0.03 | 88 | 1020.1 |
| 20260507182045 | 52 | 88 | 0.0 | 2.0 | 0.00 | 0.03 | 0.03 | 89 | 1020.1 |
| 20260507181559 | 52 | 0 | 0.0 | 0.0 | 0.00 | 0.03 | 0.03 | 91 | 1020.1 |
| 20260507181046 | 52 | 0 | 0.0 | 2.0 | 0.00 | 0.03 | 0.03 | 90 | 1020.1 |
| 20260507180546 | 52 | 0 | 0.0 | 3.0 | 0.00 | 0.03 | 0.03 | 90 | 1020.0 |
| 20260507180059 | 52 | 0 | 0.0 | 3.0 | 0.00 | 0.03 | 0.03 | 91 | 1020.1 |
| 20260507175544 | 52 | 0 | 0.0 | 0.0 | 0.00 | 0.03 | 0.03 | 92 | 1020.1 |
| 20260507175046 | 52 | 0 | 0.0 | 1.0 | 0.00 | 0.03 | 0.03 | 92 | 1020.2 |
| 20260507174602 | 52 | 0 | 0.0 | 1.0 | 0.00 | 0.03 | 0.03 | 92 | 1020.2 |
| 20260507174048 | 51 | 0 | 0.0 | 3.0 | 0.00 | 0.03 | 0.03 | 92 | 1020.2 |
| 20260507173547 | 51 | 0 | 0.0 | 3.0 | 0.00 | 0.03 | 0.03 | 92 | 1020.2 |
| 20260507173110 | 51 | 52 | 1.0 | 3.0 | 0.00 | 0.03 | 0.03 | 92 | 1020.1 |
| 20260507172544 | 51 | 0 | 0.0 | 0.0 | 0.00 | 0.03 | 0.03 | 92 | 1020.2 |
| 20260507172046 | 51 | 0 | 0.0 | 0.0 | 0.00 | 0.03 | 0.03 | 92 | 1020.2 |
| 20260507171600 | 51 | 0 | 0.0 | 3.0 | 0.00 | 0.03 | 0.03 | 92 | 1020.1 |
| 20260507171047 | 50 | 0 | 0.0 | 3.0 | 0.00 | 0.03 | 0.03 | 91 | 1020.2 |
| 20260507170548 | 50 | 0 | 0.0 | 2.0 | 0.00 | 0.03 | 0.03 | 92 | 1020.1 |
| 20260507170108 | 50 | 0 | 0.0 | 2.0 | 0.00 | 0.03 | 0.03 | 92 | 1020.2 |
| 20260507170101 | 51 | 0 | 0.0 | 3.0 | 0.00 | 0.03 | 0.03 | 92 | 1020.2 |